Погода Жамбейты

Погода Жамбейты : погода сейчас, прогноз погоды и архив. Всё, что Вы хотите узнать о погоде Жамбейты!

Хотите узнать прогноз погоды Жамбейты? Тогда Вам сюда: Погода Жамбейты

Поиск расширенной информации на нашем сайте:

Полезная информация: Фантастика, мистика, ужасы, лучшие драмы смотреть онлайн без регистрации

Другие новости

Новости СМИ2

Главная страница сайта

Новости сайта

03.07.2017

Напоминаем, что на нашем специализированном сайте Метеоцентр.Азия вы можете получить высокодетализированные автоматические прогнозы погоды по пунктам России, СНГ и мира в авиационном формате (включающие направление и скорость ветра, видимость, явления погоды, количество и форму облачности, нижнюю и верхнюю границу облачности).

Рекомендуем: печать на баннере, оригинальная печать на баннере

Погода Жамбейты - сегодня

Время (UTC), дата Ветер
(°,м/с) 
Видим.   Явления Облачность Т
(°С)
Тd
(°С)
f(%) Тe
(°С)
Pmin
(гПа)
dP
(гПа)
Po
(мм)
O2
(г/м3)
Тmin Tmax R s Состояние
почвы
15 14.02.18 340 (С) н/о    3/0 средняя, верхняя 
[Ac lent|Ci fib]
-16.4 -19 80 -19  1034.3  0.7  773  333    -11.1       
18 14.02.18 тихо ()   н/о    ясно 
-20.2 -22.8 80 -20  1035.5  1.2  773  338    -11.1       
21 14.02.18 020 (С) н/о    ясно 
-20.1 -22.7 80 -23  1035.6  0.1  773  338           
00 15.02.18 тихо ()   н/о    ясно 
-20.8 -23.3 80 -21  1036.3  0.7  774  339           
03 15.02.18 тихо ()   н/о  дымка  ясно 
-22.5 -25.7 75 -23  1037.3  0.9  775  342  -22.5      27  равномерный
сухой снег
100% 
06 15.02.18 тихо ()   4000 м  дымка{туман}  ясно 
-18.9 -21.5 80 -19  1039  1.8  776  338  -22.5         
09 15.02.18 тихо ()   10 км    ясно 
-14.3 -17 80 -14  1040.1  1.2  777  332           
12 15.02.18 тихо ()   20000 м    ясно 
-10.9 -14.5 75 -11  1040.8  0.7  777  328           
15 15.02.18 тихо ()   н/о    ясно 
-16.6 -19.2 80 -17  1041.3  0.4  778  335    -10.6       
18 15.02.18 020 (С) н/о    ясно 
-18.4 -21 80 -21  1041.7  0.4  778  338    -10.6       
21 15.02.18 тихо ()   н/о    ясно 
-22.5 -25.7 75 -23  1042.4  0.6  779  344           
00 16.02.18 тихо ()   н/о    ясно 
-20.3 -23 79 -20  1042.9  0.5  779  341           
03 16.02.18 тихо ()   н/о    3/0 верхняя 
[Ci fib]
-21.4 -24.4 77 -21  1043.2  0.3  779  342  -23      27  равномерный
сухой снег
100% 
06 16.02.18 тихо ()   20000 м    3/0 верхняя 
[Ci fib]
-17.4 -20.8 75 -17  1044.3  1.2  780  337  -23         
09 16.02.18 тихо ()   20000 м    ясно 
-10.7 -15.1 70 -11  1044.2  780  328           
12 16.02.18 тихо ()   20000 м    ясно 
-7.4 -13 64 -7  1043.5  -0.6  780  324           
15 16.02.18 030 (СВ) н/о    ясно 
-11.7 -14.5 80 -14  1043.7  0.1  780  330    -5.7       
18 16.02.18 070 (В) н/о    ясно 
-12.2 -13.5 90 -14  1043.2  -0.5  779  330    -5.7       
21 16.02.18 090 (В) н/о    ясно 
-15 -17 85 -20  1042.4  -0.9  779  333           
00 17.02.18 100 (В) н/о    ясно 
-15.7 -17.6 85 -18  1042.8  0.4  779  335           
06 17.02.18 090 (В) 20000 м    ясно 
-15.7 -18.4 80 -19  1042.2  -0.1  778  334  -17.7         
09 17.02.18 080 (В) 20000 м    ясно 
-10.2 -13 80 -13  1041.1  -1  778  327           
12 17.02.18 090 (В) 20000 м    3/0 верхняя 
[Ci ing]
-7.1 -10.6 76 -11  1039.5  -1.5  777  322           
15 17.02.18 080 (В) н/о    3/0 верхняя 
[Ci ing]
-9.4 -12 81 -13  1038.8  -0.8  776  325    -6.9       
18 17.02.18 090 (В) н/о    ясно 
-12.5 -14.5 85 -17  1038.3  -0.5  776  329    -6.9       
Время (UTC), дата Ветер
(°,м/с) 
Видим.   Явления Облачность Т
(°С)
Тd
(°С)
f(%) Тe
(°С)
Pmin
(гПа)
dP
(гПа)
Po
(мм)
O2
(г/м3)
Тmin Tmax R s Состояние
почвы

Для получения пояснительной информации подведите курсор к названию столбца.

ПОГОДА Жамбейты - архив

Всё, что Вы хотите узнать о погоде Жамбейты - удобно и подробно!

Выберите нужную дату (начиная с 1 января 2015* года) и нажмите кнопку "Найти".
Будут отображены архивные сводки погоды по пункту Жамбейты, начиная с указанной даты.


Отображать данные в формате CSV (для использования в таблицах Excel)


Внимание! Наш архив погоды предназначен исключительно для личного некоммерческого использования в познавательных целях. Если Вам необходимы официальные справки о состоянии погоды (для производственных, юридических, коммерческих и т.п. целей), обращайтесь в органы Росгидромета.

*Примечание: данная дата относится к архиву по метеостанциям СССР (Россия, СНГ, Балтия).
Архив по метеостанциям Зарубежной Европы и Азии (кроме Китая) хранится 10 дней, по другим регионам земного шара (Китай, Африка, Америка, Австралия, Океания) - 1 день.

Жамбейты - район местоположения метеостанции


Название, широта, долгота, высота метеостанции:
Жамбейты 50.2°ш. 52.6°д. 32 м над ур. моря [Казахстан]

Дополнительная информация

В oтличие oт бoльшинства пoгoдных сайтoв мы публикуем пoдрoбную метеoинфoрмацию в детальнoм прoфессиoнальнoм фoрмате.

Характеристики температуры и влажнoсти вoздуха измеряются на высoте 2 м в тени вдали oт зданий и деревьев.
Скoрoсть ветра измеряется на высoте 10 м (на урoвне рoста челoвека скoрoсть ветра ниже в 1.5-2 раза). Если метеoстанция нахoдится в гoрoде или в лесу, тo скoрoсть ветра занижена на 2-4 м/с пo сравнению с oткрытым местoм. Скoрoсть ветра над акватoриями крупных рек и oзёр, а также на вершинах хoлмoв на 2-5 м/с выше, чем в oбычных услoвиях.
Атмoсфернoе давление в разных тoчках местнoсти мoжет значительнo oтличаться oт давления на метеoстанции, в зависимoсти oт услoвий рельефа (при пoдъёме на 10 м давление пoнижается примернo на 1 мм рт.ст.).